Location: Unspecified
(19.1812°N, 0.0000°E)
Time: 01:53:37
(UTC+00:00)

Vanguard 3 - Visible Passes

Search period start: 04 April 2026 00:00
Search period end: 14 April 2026 00:00
Orbit: 508 x 3205 km, 33.3° (Epoch: 28 March)

Date Brightness Start Highest point End Pass type
(mag) Time Alt. Az. Time Alt. Az. Time Alt. Az.
4 Apr 10.0 02:23:14 14° NE 02:23:14 14° NE 02:24:29 10° NE visible
4 Apr 9.3 04:27:08 13° NW 04:31:59 28° N 04:40:35 10° ENE visible
5 Apr 9.2 03:09:57 23° N 03:09:57 23° N 03:15:00 10° NE visible
5 Apr 9.6 05:16:00 10° NW 05:22:37 35° NNE 05:33:31 10° E visible
6 Apr 9.1 03:56:41 17° NNW 03:59:40 25° N 04:06:39 10° ENE visible
7 Apr 9.7 02:39:32 16° NNE 02:39:32 16° NNE 02:41:35 10° NE visible
7 Apr 9.5 04:44:22 10° NW 04:50:08 32° NNE 04:59:22 10° ENE visible
8 Apr 9.1 03:26:17 20° N 03:27:28 21° N 03:32:57 10° ENE visible
9 Apr 9.3 04:13:04 11° NW 04:17:45 28° NNE 04:25:26 10° ENE visible
10 Apr 9.4 02:55:58 17° NNE 02:55:58 17° NNE 02:59:27 10° NE visible
10 Apr 9.1 05:01:43 10° NW 05:07:46 44° NNE 05:18:11 10° E visible
11 Apr 9.0 03:42:48 17° NNW 03:45:31 25° NNE 03:51:44 10° ENE visible
11 Apr 9.7 19:46:31 10° SSE 19:46:40 10° SSE 19:46:40 10° SSE visible
12 Apr 10.0 02:25:46 11° NE 02:25:46 11° NE 02:26:10 10° NE visible
12 Apr 8.9 04:30:02 10° NW 04:35:21 41° NNE 04:44:15 10° E visible
12 Apr 9.7 20:32:42 10° SSW 20:34:02 14° SSW 20:34:02 14° SSW visible
13 Apr 9.0 03:12:41 21° N 03:13:20 21° NNE 03:18:18 10° ENE visible
13 Apr 8.4 05:18:54 10° NW 05:25:02 74° NNE 05:36:12 10° ESE visible
13 Apr 9.2 19:11:28 10° S 19:15:49 15° SSE 19:17:30 13° SE visible
